Holdrege, NE

3:09 AM CDT on April 25, 2017 (GMT -0500)
Brewster

Weather History for KHDE - April, 2013

Change the Weather History Date:

Tuesday, April 2, 2013

  Actual Average Record
Temperature  
Mean Temperature 40 °F -  
Max Temperature 54 °F 57 °F 86 °F (2003)
Min Temperature 27 °F 31 °F 11 °F (1975)
Degree Days  
Heating Degree Days 24    
Moisture  
Dew Point 24 °F    
Average Humidity 55    
Maximum Humidity 84    
Minimum Humidity 28    
Precipitation  
Precipitation 0.00 in - - ()
Sea Level Pressure  
Sea Level Pressure 30.21 in    
Wind  
Wind Speed 7 mph (South)    
Max Wind Speed 13 mph    
Max Gust Speed 18 mph    
Visibility 10 miles    
Events      
Averages and records for this station are not official NWS values.
T = Trace of Precipitation, MM = Missing Value Source: NWS Daily Summary

Daily Weather History Graph

Daily Weather History Graph

Search for Another Location

Airport or City:

Trip Planner

Search our weather history database for the weather conditions in past years. The results will help you decide how hot, cold, wet, or windy it might be!

Date:

Astronomy

Apr. 02, 2013 Rise Set
Actual Time 7:18 AM CDT 8:03 PM CDT
Civil Twilight 6:51 AM CDT 8:30 PM CDT
Nautical Twilight 6:18 AM CDT 9:03 PM CDT
Astronomical Twilight 5:45 AM CDT 9:37 PM CDT
Moon 2:10 AM CDT (4/2) 12:10 PM CDT (4/2)
Length of Visible Light 13h 39m
Length of Day
12h 44m
Waning Gibbous, 55% of the Moon is Illuminated
Apr 2
Waning Gibbous
Apr 2
Last Quarter
Apr 10
New
Apr 18
First Quarter
Apr 25
Full

Hourly Weather History & Observations

Time (CDT) Temp. Windchill Dew Point Humidity Pressure Visibility Wind Dir Wind Speed Gust Speed Precip Events Conditions
12:15 AM 31.1 °F 24.5 °F 23.9 °F 75% 30.22 in 10.0 mi SSE 6.9 mph - N/A   Clear
12:35 AM 31.5 °F 24.9 °F 23.7 °F 73% 30.22 in 10.0 mi SSE 6.9 mph - N/A   Clear
12:55 AM 32.0 °F 27.5 °F 24.1 °F 73% 30.23 in 10.0 mi South 4.6 mph - N/A   Clear
1:15 AM 31.8 °F 27.3 °F 23.9 °F 73% 30.22 in 10.0 mi SSE 4.6 mph - N/A   Clear
1:35 AM 31.5 °F 26.8 °F 24.3 °F 75% 30.22 in 10.0 mi South 4.6 mph - N/A   Clear
1:55 AM 31.5 °F 26.8 °F 23.9 °F 74% 30.22 in 10.0 mi South 4.6 mph - N/A   Clear
2:15 AM 30.7 °F 26.0 °F 23.9 °F 76% 30.23 in 10.0 mi South 4.6 mph - N/A   Clear
2:35 AM 31.1 °F 25.4 °F 24.6 °F 77% 30.23 in 10.0 mi South 5.8 mph - N/A   Clear
2:55 AM 31.3 °F 25.6 °F 24.4 °F 76% 30.23 in 10.0 mi SSW 5.8 mph - N/A   Clear
3:15 AM 32.0 °F 25.6 °F 24.3 °F 73% 30.23 in 10.0 mi SSW 6.9 mph - N/A   Clear
3:35 AM 32.0 °F 25.6 °F 23.9 °F 72% 30.22 in 10.0 mi SSW 6.9 mph - N/A   Clear
3:55 AM 31.5 °F 25.8 °F 23.9 °F 74% 30.22 in 10.0 mi SSW 5.8 mph - N/A   Clear
4:15 AM 31.3 °F 24.7 °F 24.4 °F 76% 30.22 in 10.0 mi SSW 6.9 mph - N/A   Clear
4:35 AM 30.7 °F 26.0 °F 24.3 °F 77% 30.23 in 10.0 mi SSW 4.6 mph - N/A   Clear
4:55 AM 30.6 °F 24.7 °F 23.5 °F 75% 30.22 in 10.0 mi SSW 5.8 mph - N/A   Clear
5:15 AM 30.9 °F 25.2 °F 23.0 °F 72% 30.23 in 10.0 mi SSW 5.8 mph - N/A   Clear
5:35 AM 30.4 °F 24.5 °F 23.7 °F 76% 30.23 in 10.0 mi SSW 5.8 mph - N/A   Clear
5:55 AM 30.2 °F 23.4 °F 23.4 °F 76% 30.23 in 10.0 mi SSW 6.9 mph - N/A   Clear
6:15 AM 30.2 °F 25.4 °F 23.0 °F 75% 30.23 in 10.0 mi SSW 4.6 mph - N/A   Clear
6:35 AM 30.0 °F 26.5 °F 23.2 °F 76% 30.23 in 10.0 mi SSW 3.5 mph - N/A   Clear
6:55 AM 28.9 °F 25.2 °F 22.1 °F 76% 30.23 in 10.0 mi South 3.5 mph - N/A   Clear
7:15 AM 27.7 °F 23.8 °F 21.7 °F 78% 30.23 in 10.0 mi South 3.5 mph - N/A   Clear
7:35 AM 27.5 °F 23.6 °F 22.5 °F 81% 30.23 in 10.0 mi SSE 3.5 mph - N/A   Clear
7:55 AM 27.5 °F 22.2 °F 23.2 °F 84% 30.24 in 10.0 mi SSE 4.6 mph - N/A   Clear
8:15 AM 30.2 °F 25.4 °F 24.1 °F 78% 30.24 in 10.0 mi SSE 4.6 mph - N/A   Clear
8:35 AM 32.0 °F 27.5 °F 25.9 °F 78% 30.24 in 10.0 mi SSE 4.6 mph - N/A   Clear
8:55 AM 34.0 °F 28.8 °F 25.7 °F 72% 30.24 in 10.0 mi SSE 5.8 mph - N/A   Clear
9:35 AM 37.8 °F 31.8 °F 25.9 °F 62% 30.25 in 10.0 mi South 8.1 mph - N/A   Clear
9:55 AM 39.4 °F 36.1 °F 26.6 °F 60% 30.25 in 10.0 mi SSW 4.6 mph - N/A   Clear
10:15 AM 41.4 °F 35.7 °F 28.0 °F 59% 30.25 in 10.0 mi SSW 9.2 mph - N/A   Clear
10:35 AM 43.2 °F 37.4 °F 27.9 °F 55% 30.25 in 10.0 mi South 10.4 mph - N/A   Clear
10:55 AM 44.2 °F 38.8 °F 28.2 °F 53% 30.25 in 10.0 mi SSW 10.4 mph - N/A   Clear
11:15 AM 45.0 °F 39.7 °F 27.0 °F 49% 30.25 in 10.0 mi SSW 10.4 mph - N/A   Clear
11:35 AM 46.4 °F 40.7 °F 25.7 °F 44% 30.24 in 10.0 mi SSW 12.7 mph - N/A   Clear
11:55 AM 47.8 °F - 25.3 °F 41% 30.24 in 10.0 mi SSW 9.2 mph 16.1 mph N/A   Clear
12:15 PM 47.5 °F - 23.5 °F 39% 30.24 in 10.0 mi SSW 12.7 mph 18.4 mph N/A   Clear
12:35 PM 48.2 °F - 23.0 °F 37% 30.24 in 10.0 mi South 11.5 mph 16.1 mph N/A   Clear
12:55 PM 48.4 °F - 23.4 °F 37% 30.23 in 10.0 mi SW 9.2 mph 17.3 mph N/A   Clear
1:15 PM 49.5 °F - 23.4 °F 36% 30.23 in 10.0 mi South 10.4 mph 17.3 mph N/A   Clear
1:35 PM 49.3 °F - 23.0 °F 36% 30.22 in 10.0 mi SSW 11.5 mph - N/A   Clear
1:55 PM 50.4 °F - 22.8 °F 34% 30.22 in 10.0 mi SSW 9.2 mph - N/A   Clear
2:15 PM 51.4 °F - 23.7 °F 34% 30.21 in 10.0 mi SSW 8.1 mph - N/A   Clear
2:35 PM 51.1 °F - 22.5 °F 33% 30.21 in 10.0 mi South 10.4 mph 17.3 mph N/A   Clear
2:55 PM 52.2 °F - 22.1 °F 31% 30.20 in 10.0 mi South 10.4 mph - N/A   Clear
3:15 PM 52.5 °F - 22.6 °F 31% 30.19 in 10.0 mi SW 8.1 mph - N/A   Clear
3:35 PM 52.3 °F - 21.7 °F 30% 30.19 in 10.0 mi SSW 6.9 mph - N/A   Clear
3:55 PM 53.8 °F - 23.4 °F 31% 30.19 in 10.0 mi SW 6.9 mph - N/A   Clear
4:15 PM 53.6 °F - 22.8 °F 30% 30.18 in 10.0 mi SSW 11.5 mph 16.1 mph N/A   Clear
4:35 PM 54.3 °F - 23.5 °F 30% 30.17 in 10.0 mi South 5.8 mph - N/A   Clear
4:55 PM 54.7 °F - 23.0 °F 29% 30.17 in 10.0 mi SSE 8.1 mph - N/A   Clear
5:15 PM 54.5 °F - 22.6 °F 29% 30.17 in 10.0 mi SW 5.8 mph - N/A   Clear
5:35 PM 54.1 °F - 21.6 °F 28% 30.16 in 10.0 mi South 8.1 mph 16.1 mph N/A   Clear
5:55 PM 54.0 °F - 22.5 °F 29% 30.16 in 10.0 mi South 8.1 mph - N/A   Clear
6:15 PM 53.8 °F - 22.8 °F 30% 30.17 in 10.0 mi SSE 5.8 mph - N/A   Clear
6:35 PM 53.4 °F - 22.6 °F 30% 30.17 in 10.0 mi SSE 10.4 mph - N/A   Clear
6:55 PM 52.9 °F - 22.5 °F 31% 30.17 in 10.0 mi South 9.2 mph - N/A   Clear
7:15 PM 52.2 °F - 22.3 °F 31% 30.17 in 10.0 mi South 6.9 mph - N/A   Clear
7:35 PM 51.1 °F - 22.6 °F 33% 30.17 in 10.0 mi South 6.9 mph - N/A   Clear
7:55 PM 49.1 °F - 24.3 °F 38% 30.17 in 10.0 mi South 5.8 mph - N/A   Clear
8:15 PM 46.6 °F - 25.0 °F 43% 30.17 in 10.0 mi South 5.8 mph - N/A   Clear
8:35 PM 45.3 °F 41.1 °F 24.8 °F 45% 30.17 in 10.0 mi South 8.1 mph - N/A   Clear
8:55 PM 43.3 °F 38.1 °F 25.2 °F 49% 30.17 in 10.0 mi South 9.2 mph - N/A   Clear
9:15 PM 42.6 °F 36.8 °F 25.2 °F 50% 30.17 in 10.0 mi South 10.4 mph - N/A   Clear
9:35 PM 41.4 °F 36.2 °F 25.2 °F 53% 30.18 in 10.0 mi South 8.1 mph - N/A   Clear
9:55 PM 41.0 °F 36.4 °F 25.2 °F 53% 30.19 in 10.0 mi SSW 6.9 mph - N/A   Clear
10:15 PM 39.6 °F 35.4 °F 25.2 °F 56% 30.20 in 10.0 mi SSW 5.8 mph - N/A   Clear
10:35 PM 39.9 °F 35.1 °F 25.5 °F 56% 30.20 in 10.0 mi SW 6.9 mph - N/A   Clear
10:55 PM 40.1 °F 34.7 °F 25.7 °F 56% 30.20 in 10.0 mi SSW 8.1 mph - N/A   Clear
11:15 PM 40.5 °F 35.8 °F 25.3 °F 55% 30.20 in 10.0 mi SSW 6.9 mph - N/A   Clear
11:35 PM 38.7 °F 32.9 °F 25.2 °F 58% 30.21 in 10.0 mi SSW 8.1 mph - N/A   Clear
11:55 PM 37.0 °F 32.4 °F 25.0 °F 62% 30.21 in 10.0 mi SSW 5.8 mph - N/A   Clear